Temperature
15 15 15 15 15 15 15 15 15 15 15 15 15 15 15 14 14 14 14 14 14 14 14 14 14 13 13 13 13 13 13 13 13 12 12 12 12 12 12 12 12 12 12
15 15 15 15 15 15 15 14 14 14 14 14 14 14 14 14 14 14 14 14 14 14 14 13 13 13 13 13 13 13 13 13 13 13 12 12 12 12 12 12 12 11 11
15 15 14 14 14 14 14 14 14 14 14 14 14 14 14 14 14 14 14 14 14 13 13 13 13 13 13 13 13 13 13 13 13 13 12 12 12 12 12 11 11 11 11
15 15 14 14 14 14 14 14 14 14 14 14 14 14 14 14 14 14 13 13 13 13 13 13 13 13 13 13 13 13 13 13 12 12 12 12 12 11 11 11 11 11 11
14 14 14 14 14 14 14 13 13 13 13 13 14 14 13 13 13 13 13 13 13 13 13 13 13 13 13 13 13 13 13 12 12 12 12 12 12 11 11 11 11 11 11
14 14 14 14 14 13 13 13 13 13 13 13 13 13 13 13 13 13 13 13 13 13 13 13 13 13 13 13 13 12 12 12 12 12 12 12 12 11 11 11 11 11 10
14 14 13 13 13 13 13 13 13 13 13 13 13 13 13 13 13 13 13 13 13 13 13 13 13 12 12 12 12 12 12 12 12 12 12 12 11 11 11 11 11 11 10
13 13 13 13 13 13 12 12 12 12 12 13 13 13 13 13 13 13 13 13 13 13 12 12 12 12 12 12 12 12 12 12 12 12 12 11 11 11 11 11 10 10 10
13 13 13 13 13 12 12 12 12 12 12 12 12 12 12 12 12 12 12 12 12 12 12 12 12 12 12 12 12 12 12 12 11 11 11 11 11 11 11 10 10 10 10
13 13 12 12 12 12 12 12 12 12 12 12 12 12 12 12 12 12 12 12 12 12 12 12 12 12 12 12 12 11 11 11 11 11 11 11 11 10 10 10 10 10 10
13 12 12 12 12 12 12 12 12 12 11 11 11 12 12 12 12 12 12 12 12 12 12 11 11 11 11 11 11 11 11 11 11 11 11 11 10 10 10 10 10 10 9
12 12 12 12 12 12 12 11 11 11 11 11 11 11 11 11 11 11 11 11 11 11 11 11 11 11 11 11 11 11 11 10 10 10 10 10 10 10 10 9 9 9 9
12 11 11 11 11 11 11 11 11 11 11 11 11 11 11 11 11 11 11 11 11 11 11 11 10 10 10 10 10 10 10 10 10 10 10 10 10 9 9 9 9 9 9
11 11 11 11 11 11 11 11 11 11 11 11 11 10 11 11 11 11 11 11 11 10 10 10 10 10 10 10 10 10 9 9 9 9 9 9 9 9 9 8 8 8 8
11 11 11 11 11 10 10 10 10 10 10 10 10 10 10 10 10 10 10 10 10 10 10 10 9 9 9 9 9 9 9 9 9 9 9 9 8 8 8 8 8 8 8
10 10 10 10 10 10 10 10 10 10 10 10 10 10 10 10 10 10 10 10 9 9 9 9 9 9 9 9 9 9 8 8 8 8 8 8 8 8 8 8 8 8 8
10 10 10 10 10 10 9 9 9 9 9 9 9 9 9 9 9 9 9 9 9 9 9 9 9 9 9 8 8 8 8 8 8 8 8 7 7 7 7 7 7 7 7
9 9 9 9 9 9 9 9 9 9 9 9 9 9 9 9 9 9 9 9 8 8 8 9 8 8 8 8 8 8 8 7 7 7 7 7 7 7 7 7 7 7 7
9 9 9 9 9 9 9 8 8 8 8 8 8 8 8 8 8 8 8 8 8 8 8 8 8 8 8 8 7 7 7 7 7 7 7 7 7 6 6 6 6 6 6
8 8 8 8 8 8 8 8 8 8 8 8 7 8 7 7 7 7 7 7 7 7 7 7 7 7 7 7 7 7 7 7 7 6 6 6 6 6 6 6 6 6 6
8 8 8 8 8 7 7 7 7 7 7 7 7 7 7 7 7 7 7 7 7 7 7 7 7 7 7 7 7 6 6 6 6 6 6 6 6 5 5 5 5 5 5
7 7 7 7 7 7 7 7 7 7 6 6 6 6 6 6 6 6 6 6 6 6 6 6 6 6 6 6 6 6 6 6 6 6 6 5 5 5 5 5 5 5 5
7 7 7 7 6 6 6 6 6 6 6 6 6 5 5 5 5 5 5 5 5 6 6 5 5 5 5 5 5 5 5 5 5 5 5 5 5 5 4 4 5 4 4
6 6 6 6 6 6 6 6 6 5 5 5 5 5 5 5 5 5 5 5 5 5 5 5 5 5 5 5 5 5 5 5 5 5 4 4 4 4 4 4 4 4 4
6 5 5 5 5 5 5 5 5 5 5 5 5 5 5 4 4 4 4 4 4 4 4 4 4 4 4 4 4 4 4 4 4 4 4 4 4 3 3 3 3 3 3
5 5 5 5 5 5 5 5 4 4 5 4 4 4 4 4 4 4 4 4 4 4 4 4 4 4 4 4 4 4 4 4 4 3 3 3 3 3 3 3 3 3 3
Wind_Speed
5 4 4 3 3 3 3 2 2 2 2 3 3 3 3 2 2 3 2 2 2 2 2 3 2 2 2 2 2 2 3 3 3 1 0 0 2 2 2 2 2 2 2
5 5 4 3 3 2 2 2 2 2 2 3 3 3 2 2 2 3 2 2 3 2 2 2 2 2 2 2 2 2 2 2 4 2 0 0 1 2 2 1 1 1 2
5 5 4 3 3 2 2 2 2 3 3 2 3 3 2 2 2 2 3 2 2 2 2 3 3 3 2 2 2 2 2 2 2 3 1 0 0 1 1 0 0 0 1
4 5 5 4 4 3 3 2 3 3 3 3 3 2 2 2 2 2 2 2 2 2 2 2 3 4 4 3 3 3 3 3 3 3 2 1 0 0 1 0 1 1 1
4 4 5 5 4 3 3 2 2 2 3 3 3 2 1 2 2 2 3 3 2 2 1 1 2 3 4 4 3 4 4 3 3 3 2 1 1 1 1 1 1 1 1
5 5 4 4 4 3 3 3 3 2 2 2 3 3 2 2 2 4 3 3 3 3 2 1 1 1 3 4 4 6 7 6 5 3 2 3 3 3 2 2 2 1 2
5 4 4 4 4 4 4 3 3 3 3 3 3 3 3 2 2 3 4 3 3 3 2 2 1 1 2 2 3 4 4 5 7 6 5 5 4 4 4 3 3 3 3
5 5 5 4 5 4 4 4 3 3 3 3 3 3 3 3 3 3 4 3 2 2 2 2 2 1 2 3 3 2 2 3 5 5 5 5 4 5 5 4 4 2 1
4 5 5 5 5 5 5 5 3 3 3 3 3 3 3 3 4 4 4 2 2 2 2 2 2 2 3 4 4 3 2 2 3 4 5 4 3 3 4 3 2 2 1
4 4 5 5 6 6 6 5 3 4 4 3 3 4 4 4 4 5 5 3 2 2 1 1 2 2 3 4 4 5 4 4 2 1 1 1 1 2 3 4 4 3 2
4 3 4 4 5 5 5 4 3 3 3 3 3 3 3 4 5 6 5 4 4 3 2 2 2 2 3 4 4 5 6 4 3 2 1 1 0 1 2 3 4 4 4
3 3 4 4 4 4 4 3 3 4 3 3 2 2 3 3 4 5 6 6 5 4 4 3 3 3 3 4 3 4 4 4 2 2 1 1 2 2 2 3 4 4 4
3 3 3 3 3 3 4 4 3 3 3 3 3 3 3 3 4 5 6 6 6 4 4 5 4 4 3 3 3 3 3 3 3 2 3 3 3 3 2 2 2 2 1
2 3 3 3 2 2 2 3 3 4 4 4 4 4 3 3 4 3 3 4 4 4 3 3 3 2 2 2 2 2 2 3 3 3 3 3 1 1 2 2 2 1 1
3 3 3 3 3 3 3 3 4 5 6 6 5 5 5 5 7 7 5 5 5 4 3 2 1 1 1 1 1 2 2 2 3 2 2 2 2 2 2 2 2 2 2
3 3 3 3 3 3 3 2 2 3 5 6 6 5 5 6 6 7 8 7 7 6 4 2 2 3 4 4 3 3 3 3 4 3 3 3 3 3 3 2 2 3 3
4 4 4 3 3 3 3 3 2 3 2 3 4 5 5 4 4 6 6 6 6 7 4 4 4 4 4 4 4 4 4 4 3 3 4 4 4 4 3 3 3 3 4
3 4 4 4 4 4 3 3 3 3 2 2 3 4 4 3 4 5 5 4 3 4 4 4 5 5 4 4 4 4 4 3 3 3 3 3 3 3 3 3 4 4 4
3 3 3 3 3 3 3 3 3 3 3 2 1 2 2 1 1 2 4 3 4 4 5 5 5 5 4 5 5 4 4 4 3 3 4 4 3 3 4 4 4 5 4
2 3 2 2 2 2 2 2 2 2 2 3 3 2 1 0 0 1 2 2 3 4 4 5 5 4 4 4 4 4 4 4 4 4 4 4 4 4 4 5 4 4 4
2 2 2 2 3 3 3 3 3 2 2 3 3 3 2 2 3 3 3 3 3 3 4 4 4 4 4 4 4 4 5 5 5 4 4 4 4 4 4 4 4 4 4
2 2 3 3 3 3 3 3 3 3 3 3 2 2 3 2 2 3 3 4 4 4 3 3 3 3 4 4 5 5 5 5 5 4 4 4 4 3 3 4 4 3 3
2 2 2 2 3 3 3 2 3 3 3 3 3 3 3 3 3 3 4 4 3 3 2 2 3 3 3 4 5 5 6 6 5 5 4 4 4 4 4 4 4 4 4
2 2 2 2 2 3 3 3 3 3 3 3 3 3 4 4 4 4 4 3 3 3 3 3 4 4 5 5 4 5 6 7 6 6 6 5 5 4 4 4 4 5 5
2 2 2 2 3 3 3 3 4 4 4 4 4 4 4 4 4 4 4 4 4 4 4 4 4 5 7 7 6 6 8 9 8 7 6 5 5 5 4 4 4 4 4
2 3 3 2 3 3 3 4 4 4 4 4 4 4 4 4 5 4 4 4 4 4 4 4 6 7 7 7 8 9 8 9 10 10 7 5 5 5 5 4 5 4 4
Wind_Direction
156 152 146 156 150 140 142 165 171 155 138 142 147 141 138 132 121 122 128 129 133 136 140 142 152 139 130 136 129 122 127 133 153 248 300 107 128 146 137 155 176 178 187
165 156 154 154 146 142 155 171 161 154 143 141 146 146 149 143 133 132 142 131 129 140 153 147 168 160 143 146 140 141 144 147 149 162 324 56 172 175 149 140 163 182 195
163 160 155 162 161 162 176 176 153 151 150 137 135 150 162 157 153 158 153 155 152 155 160 162 176 157 164 161 159 159 151 141 139 151 176 172 119 128 96 17 49 60 219
156 163 169 179 183 185 184 175 167 155 154 158 166 167 173 168 158 161 160 158 158 160 165 167 169 167 178 175 168 166 151 135 132 141 155 168 165 165 113 120 336 315 273
158 172 187 188 182 175 174 175 169 158 162 166 154 154 161 163 168 165 172 175 170 165 175 199 185 171 171 175 169 169 156 145 143 150 166 158 196 155 192 195 205 288 306
167 186 188 176 172 176 178 166 158 163 171 158 161 169 176 186 164 169 166 180 185 178 187 229 229 193 191 177 169 164 164 165 170 167 185 198 223 215 201 188 176 135 289
178 185 183 179 174 174 174 165 174 181 173 173 180 175 192 208 171 169 173 172 181 190 193 205 223 219 194 194 183 175 179 180 176 175 185 209 212 207 185 186 194 190 223
188 196 190 181 184 177 167 174 182 180 178 190 200 193 195 216 189 175 169 166 173 198 203 197 200 246 205 182 171 171 199 213 202 188 194 210 212 202 188 187 188 182 265
196 200 194 185 184 181 183 190 192 184 193 203 203 195 197 227 210 186 166 163 173 213 222 210 195 209 208 173 160 174 203 251 225 193 193 194 193 190 169 138 139 138 230
205 208 199 188 187 193 197 198 198 189 201 204 215 213 207 219 213 192 175 168 182 221 252 247 220 206 195 172 172 180 198 228 210 163 153 203 183 180 173 171 176 173 185
207 201 194 193 197 199 198 195 191 191 191 207 226 236 224 222 215 202 192 185 191 202 221 248 252 207 190 188 184 192 206 196 177 164 163 172 165 184 194 191 185 180 186
194 194 194 198 203 201 190 196 195 189 193 204 226 254 253 240 227 212 205 202 191 192 215 225 231 211 205 200 197 199 183 159 150 152 168 212 227 231 226 210 208 204 205
177 191 201 202 204 196 191 193 196 194 196 208 210 233 255 251 242 228 213 206 200 201 217 218 214 205 201 205 206 190 169 163 167 178 208 228 230 227 210 195 216 203 221
186 201 195 192 205 208 205 198 196 201 202 211 218 226 242 245 237 229 218 208 197 203 215 208 196 190 194 200 208 208 192 184 186 204 216 227 217 205 209 199 202 202 208
205 214 206 200 201 208 215 213 210 214 207 208 217 215 216 234 236 218 205 210 206 204 175 137 127 172 209 222 226 230 217 199 204 213 210 213 215 217 227 203 181 175 192
210 221 213 205 207 206 211 259 272 237 236 233 227 222 228 229 233 220 209 206 197 178 153 170 201 214 219 221 222 226 223 219 219 213 213 213 217 220 229 220 193 196 215
209 218 213 206 206 211 208 207 261 315 298 256 243 237 236 229 219 214 204 195 185 166 170 197 208 215 222 223 223 221 227 231 220 212 219 224 223 219 216 223 222 222 233
214 222 215 209 208 212 216 217 215 226 255 282 280 266 261 239 219 217 195 158 178 188 206 210 216 219 220 221 222 224 229 228 218 220 223 227 223 216 215 219 221 225 231
224 227 218 210 207 208 213 218 220 224 232 249 279 289 278 266 207 197 169 180 199 213 219 223 224 223 223 222 222 222 220 221 218 215 220 223 223 218 223 224 223 228 222
235 244 221 207 202 201 202 208 219 225 232 237 241 246 233 131 205 209 204 211 214 220 220 225 229 227 224 222 222 219 218 222 222 220 224 225 222 220 225 225 222 222 224
238 242 236 218 211 212 214 216 218 219 227 239 248 241 196 198 211 217 221 228 227 230 230 228 229 229 226 221 217 217 217 223 223 220 221 224 221 224 225 223 221 220 221
224 226 221 218 217 218 221 219 215 218 226 239 263 259 223 213 217 227 233 237 234 232 233 225 229 232 230 229 223 221 223 225 225 221 221 223 221 224 228 226 223 221 220
224 225 226 224 215 223 225 223 222 223 228 235 242 245 230 226 228 235 244 248 241 240 240 229 232 240 242 235 228 220 221 224 222 213 209 212 214 216 218 221 219 218 220
224 221 224 230 222 217 218 223 226 229 232 236 235 235 233 230 232 238 243 250 250 247 238 233 239 242 240 236 231 228 228 225 216 210 205 210 213 216 215 218 220 218 218
231 228 222 228 233 233 232 232 232 234 236 240 239 238 238 239 240 243 245 250 250 248 244 238 238 241 240 235 232 234 236 230 222 214 207 206 210 211 210 213 218 219 219
234 236 235 236 237 237 236 238 240 240 239 243 244 239 238 241 242 243 245 247 250 251 251 246 239 238 241 242 238 237 238 233 227 218 207 203 206 213 209 213 214 216 215
Height
1521 1522 1523 1524 1526 1526 1527 1528 1528 1529 1529 1530 1530 1530 1531 1531 1531 1531 1531 1532 1532 1532 1532 1533 1533 1533 1534 1534 1534 1534 1535 1535 1535 1535 1536 1536 1536 1536 1536 1536 1535 1535 1534
1519 1520 1521 1523 1524 1524 1525 1526 1526 1527 1528 1528 1529 1529 1529 1529 1529 1530 1530 1530 1530 1531 1531 1531 1531 1532 1532 1533 1533 1533 1533 1534 1534 1534 1534 1535 1535 1535 1535 1535 1534 1534 1533
1517 1518 1519 1520 1522 1522 1523 1524 1524 1525 1526 1526 1527 1527 1527 1527 1528 1528 1528 1528 1529 1529 1529 1530 1530 1530 1531 1531 1532 1532 1532 1533 1533 1533 1533 1534 1534 1534 1534 1533 1533 1533 1532
1515 1516 1516 1518 1519 1520 1521 1522 1522 1523 1524 1524 1525 1525 1525 1526 1526 1526 1527 1527 1527 1527 1528 1528 1528 1528 1529 1529 1530 1530 1531 1531 1531 1532 1532 1532 1532 1532 1532 1532 1531 1531 1531
1512 1513 1514 1516 1517 1518 1518 1519 1520 1521 1521 1522 1523 1523 1524 1524 1524 1524 1525 1525 1525 1526 1526 1526 1527 1527 1527 1528 1528 1528 1529 1529 1529 1530 1530 1530 1530 1530 1530 1530 1530 1530 1529
1509 1510 1512 1513 1514 1515 1516 1517 1517 1518 1519 1519 1520 1521 1521 1522 1522 1522 1523 1523 1523 1524 1524 1524 1525 1525 1526 1526 1526 1526 1527 1527 1527 1527 1528 1528 1528 1528 1529 1528 1528 1528 1527
1506 1507 1509 1510 1511 1512 1513 1514 1515 1515 1516 1517 1517 1518 1518 1519 1520 1520 1520 1521 1521 1521 1522 1522 1523 1523 1523 1524 1524 1524 1524 1525 1525 1525 1525 1526 1526 1526 1526 1526 1526 1526 1526
1503 1504 1506 1507 1508 1510 1510 1511 1512 1513 1513 1514 1515 1515 1516 1516 1517 1517 1518 1518 1519 1519 1519 1520 1520 1520 1521 1521 1521 1521 1522 1522 1522 1523 1523 1523 1524 1524 1524 1524 1524 1524 1524
1500 1501 1502 1504 1505 1506 1507 1508 1509 1510 1510 1511 1512 1512 1513 1513 1514 1515 1515 1516 1516 1516 1517 1517 1517 1517 1518 1518 1519 1519 1519 1519 1520 1520 1521 1521 1521 1521 1521 1521 1521 1521 1520
1497 1498 1500 1501 1502 1504 1505 1505 1506 1507 1507 1508 1509 1510 1510 1510 1511 1512 1512 1513 1513 1513 1513 1514 1514 1514 1515 1515 1515 1515 1516 1516 1517 1517 1518 1518 1518 1518 1518 1518 1518 1518 1518
1495 1496 1497 1498 1499 1501 1502 1503 1503 1504 1504 1505 1505 1506 1507 1507 1508 1508 1509 1509 1509 1509 1510 1510 1510 1511 1511 1512 1512 1512 1512 1513 1513 1514 1514 1514 1514 1515 1515 1515 1515 1515 1515
1492 1493 1494 1495 1497 1497 1498 1499 1500 1500 1501 1501 1501 1502 1503 1503 1504 1504 1505 1505 1506 1506 1506 1506 1507 1507 1508 1508 1508 1509 1509 1509 1510 1510 1510 1510 1510 1511 1511 1511 1511 1511 1511
1489 1490 1491 1492 1493 1494 1494 1495 1496 1496 1497 1497 1497 1497 1498 1499 1500 1500 1501 1501 1502 1502 1502 1503 1503 1503 1504 1504 1505 1505 1505 1505 1505 1505 1505 1506 1507 1507 1507 1508 1508 1508 1508
1486 1487 1487 1488 1489 1489 1490 1491 1492 1492 1492 1493 1493 1494 1494 1495 1495 1496 1496 1497 1497 1498 1498 1498 1499 1499 1500 1500 1500 1501 1501 1501 1501 1501 1501 1502 1502 1503 1503 1503 1503 1503 1503
1483 1484 1484 1484 1485 1485 1486 1487 1487 1488 1489 1489 1489 1490 1490 1489 1490 1491 1491 1492 1493 1493 1493 1494 1494 1495 1495 1496 1496 1496 1496 1497 1497 1497 1497 1498 1498 1498 1499 1499 1499 1499 1499
1479 1480 1480 1481 1481 1481 1481 1482 1483 1484 1485 1485 1486 1486 1486 1486 1486 1486 1487 1488 1488 1489 1489 1489 1489 1490 1491 1491 1491 1491 1492 1492 1492 1493 1493 1493 1493 1494 1494 1494 1494 1494 1494
1476 1476 1477 1477 1477 1477 1477 1477 1478 1479 1480 1480 1480 1481 1481 1481 1481 1482 1482 1483 1484 1484 1484 1484 1485 1485 1486 1487 1487 1487 1487 1488 1488 1488 1489 1489 1489 1489 1489 1490 1490 1490 1490
1472 1472 1472 1472 1473 1473 1473 1473 1474 1474 1474 1474 1475 1476 1476 1476 1477 1477 1477 1478 1478 1478 1479 1479 1480 1481 1481 1482 1482 1482 1483 1483 1483 1484 1484 1484 1484 1484 1485 1485 1485 1485 1485
1469 1468 1468 1469 1469 1469 1469 1469 1470 1470 1470 1470 1470 1471 1471 1471 1472 1472 1472 1472 1472 1472 1473 1474 1475 1476 1477 1477 1478 1478 1478 1478 1478 1479 1479 1479 1479 1479 1479 1479 1480 1480 1480
1465 1465 1465 1465 1464 1465 1465 1465 1465 1465 1465 1465 1465 1466 1466 1466 1466 1466 1466 1466 1467 1467 1468 1469 1470 1471 1471 1472 1472 1473 1473 1473 1473 1474 1474 1474 1474 1474 1474 1474 1474 1474 1474
1461 1460 1461 1461 1460 1460 1461 1461 1461 1461 1461 1461 1461 1461 1461 1461 1461 1461 1461 1462 1462 1462 1462 1463 1464 1465 1466 1467 1467 1467 1467 1467 1468 1468 1468 1469 1469 1469 1469 1469 1469 1469 1469
1457 1456 1456 1456 1456 1456 1456 1456 1457 1456 1456 1456 1456 1457 1457 1457 1457 1457 1457 1457 1457 1457 1457 1458 1458 1459 1460 1461 1461 1462 1462 1462 1462 1462 1462 1463 1463 1463 1463 1463 1463 1463 1464
1453 1452 1452 1452 1452 1452 1452 1452 1452 1452 1452 1452 1452 1452 1452 1452 1452 1452 1452 1452 1452 1452 1452 1452 1453 1453 1454 1455 1455 1455 1455 1456 1456 1456 1457 1457 1457 1457 1457 1457 1457 1458 1458
1448 1448 1448 1447 1448 1447 1447 1447 1448 1448 1448 1448 1448 1448 1447 1447 1447 1447 1447 1447 1447 1447 1447 1447 1447 1447 1448 1448 1449 1449 1449 1450 1450 1450 1451 1451 1451 1451 1452 1452 1452 1452 1452
1445 1444 1444 1443 1443 1443 1443 1443 1443 1443 1443 1443 1443 1443 1443 1442 1442 1442 1442 1441 1441 1441 1441 1441 1442 1442 1442 1442 1442 1442 1443 1443 1444 1444 1445 1445 1445 1446 1446 1446 1446 1446 1447
1440 1440 1439 1439 1439 1439 1438 1438 1438 1438 1438 1438 1438 1438 1438 1437 1437 1437 1437 1436 1436 1436 1436 1436 1436 1436 1436 1436 1436 1436 1436 1437 1438 1438 1439 1439 1439 1440 1440 1440 1440 1441 1441